MPEC 2007-V88 : 2007 VD184

The following Minor Planet Electronic Circular may be linked-to from your own Web pages, but must not otherwise be redistributed electronically.


Read MPEC 2007-V87 Read MPEC 2007-V89


M.P.E.C. 2007-V88                                Issued 2007 Nov. 13, 14:08 UT

     The Minor Planet Electronic Circulars contain information on unusual
         minor planets and routine data on comets.  They are published
   on behalf of Commission 20 of the International Astronomical Union by the
          Minor Planet Center, Smithsonian Astrophysical Observatory,
                          Cambridge, MA 02138, U.S.A.

             Prepared using the Tamkin Foundation Computer Network

                              MPC@CFA.HARVARD.EDU
          URL http://www.cfa.harvard.edu/iau/mpc.html  ISSN 1523-6714

                                  2007 VD184

Observations:
     K07VI4D* C2007 11 11.08478 23 10 28.52 -01 36 33.7          20.7 V EV088G96
     K07VI4D  C2007 11 11.09139 23 10 27.69 -01 36 40.5          20.4 V EV088G96
     K07VI4D  C2007 11 11.09808 23 10 26.86 -01 36 47.6          20.3 V EV088G96
     K07VI4D  C2007 11 11.10477 23 10 26.00 -01 36 55.2          20.6 V EV088G96
     K07VI4D  C2007 11 11.27093 23 10 05.26 -01 39 53.5          20.8 V EV088G96
     K07VI4D  C2007 11 11.27361 23 10 04.94 -01 39 56.9          20.6 V EV088G96
     K07VI4D  C2007 11 11.27630 23 10 04.65 -01 39 59.7          20.6 V EV088G96
     K07VI4D  C2007 11 11.27898 23 10 04.36 -01 40 02.5          20.7 V EV088G96
     K07VI4D  C2007 11 12.81300 23 07 33.36 -02 08 57.3                 EV088J95
     K07VI4D IC2007 11 12.82395 23 07 31.94 -02 09 10.5          20.1 R EV088J95
     K07VI4D  C2007 11 13.10597 23 07 03.60 -02 14 16.9          21.1 V EV088291
     K07VI4D  C2007 11 13.11004 23 07 03.04 -02 14 21.5          21.1 V EV088291
     K07VI4D  C2007 11 13.11515 23 07 02.36 -02 14 27.7          20.9 V EV088291
     K07VI4D  C2007 11 13.11619 23 07 02.20 -02 14 29.9          19.9 V EV088G96
     K07VI4D  C2007 11 13.12316 23 07 01.27 -02 14 38.0          20.5 V EV088G96
     K07VI4D  C2007 11 13.13002 23 07 00.33 -02 14 46.2          20.4 V EV088G96
     K07VI4D  C2007 11 13.13697 23 06 59.40 -02 14 54.6          20.1 V EV088G96

Observer details:
291 LPL/Spacewatch II.  Observer J. V. Scotti.  1.8-m f/2.7 reflector + CCD.
G96 Mt. Lemmon Survey.  Observer R. A. Kowalski.  Measurers E. C. Beshore,
    A. Boattini, G. J. Garradd, A. R. Gibbs, A. D. Grauer, R. E. Hill,
    R. A. Kowalski, S. M. Larson, R. H. McNaught.  1.5-m reflector + CCD.
J95 Great Shefford.  Observer P. Birtwhistle.  0.40-m f/6.0 Schmidt-Cassegrain
    + CCD.

Orbital elements:
2007 VD184                                               Earth MOID = 0.0008 AU
Epoch 2007 Oct. 27.0 TT = JDT 2454400.5                 MPC
M 342.26740              (2000.0)            P               Q
n   0.36247521     Peri.  203.96362     +0.10895196     -0.99387050
a   1.9481266      Node   239.78623     +0.91548668     +0.10766607
e   0.5052594      Incl.    1.24210     +0.38731591     +0.02508878
P   2.72           H   23.2           G   0.15           U   8
Residuals in seconds of arc
071111 G96  0.4-  0.1+    071111 G96  0.4+  0.2-    071113 291  0.3-  0.3+
071111 G96  0.4-  0.4+    071111 G96  0.7+  0.1-    071113 G96  0.4+  0.1-
071111 G96  0.1-  0.5+    071112 J95  0.7+  0.2-    071113 G96  0.5+  0.0
071111 G96  0.3-  0.1+    071112 J95  0.1-  0.7-    071113 G96  0.1+  0.2-
071111 G96  0.0   0.3+    071113 291  0.1-  0.3+    071113 G96  0.1+  0.4-
071111 G96  0.0   0.3-    071113 291  0.3-  0.5+

Ephemeris:
2007 VD184               a,e,i = 1.95, 0.51, 1                   q = 0.9638
Date    TT    R. A. (2000) Decl.     Delta      r     Elong.  Phase     V
2007 11 06    23 18.62   -00 12.5    0.129    1.075   127.2    47.3    20.7
2007 11 07    23 17.04   -00 27.9    0.126    1.070   125.8    48.8    20.7
2007 11 08    23 15.45   -00 43.7    0.122    1.064   124.3    50.3    20.6
2007 11 09    23 13.85   -01 00.0    0.118    1.059   122.8    51.8    20.6
2007 11 10    23 12.23   -01 16.8    0.115    1.055   121.4    53.3    20.6
2007 11 11    23 10.59   -01 34.3    0.111    1.050   119.9    54.9    20.5
2007 11 12    23 08.93   -01 52.5    0.107    1.045   118.4    56.5    20.5
2007 11 13    23 07.23   -02 11.4    0.103    1.041   116.9    58.1    20.5
2007 11 14    23 05.49   -02 31.3    0.0998   1.036   115.3    59.7    20.4
2007 11 15    23 03.70   -02 52.2    0.0961   1.032   113.8    61.3    20.4
2007 11 16    23 01.84   -03 14.2    0.0924   1.028   112.2    63.0    20.3
2007 11 17    22 59.90   -03 37.7    0.0887   1.023   110.6    64.7    20.3
2007 11 18    22 57.86   -04 02.7    0.0850   1.019   109.0    66.5    20.2
2007 11 19    22 55.70   -04 29.6    0.0813   1.016   107.3    68.3    20.2
2007 11 20    22 53.39   -04 58.6    0.0776   1.012   105.6    70.2    20.1
2007 11 21    22 50.91   -05 30.2    0.0739   1.008   103.8    72.1    20.1
2007 11 22    22 48.20   -06 04.8    0.0702   1.005   101.9    74.1    20.0
2007 11 23    22 45.23   -06 43.0    0.0665   1.001   100.0    76.2    20.0
2007 11 24    22 41.94   -07 25.4    0.0628   0.998    98.0    78.4    19.9
2007 11 25    22 38.25   -08 12.8    0.0590   0.995    95.8    80.8    19.9
2007 11 26    22 34.07   -09 06.3    0.0554   0.992    93.5    83.3    19.8
2007 11 27    22 29.27   -10 07.2    0.0517   0.989    91.0    86.0    19.8
2007 11 28    22 23.71   -11 17.0    0.0480   0.986    88.3    88.9    19.7
2007 11 29    22 17.18   -12 37.7    0.0444   0.984    85.3    92.1    19.7
2007 11 30    22 09.41   -14 11.9    0.0409   0.981    82.0    95.6    19.6
2007 12 01    22 00.00   -16 02.7    0.0374   0.979    78.2    99.6    19.6
2007 12 02    21 48.43   -18 13.8    0.0341   0.977    73.9   104.2    19.7
2007 12 03    21 33.93   -20 49.5    0.0308   0.975    68.9   109.4    19.7
2007 12 04    21 15.43   -23 53.8    0.0278   0.973    62.9   115.6    19.9
2007 12 05    20 51.39   -27 28.3    0.0251   0.972    55.9   122.9    20.2
2007 12 06    20 19.78   -31 27.8    0.0228   0.970    47.7   131.4    20.8

Timothy B. Spahr             (C) Copyright 2007 MPC           M.P.E.C. 2007-V88

Read MPEC 2007-V87 Read MPEC 2007-V89


Our Web policy. Index to the CBAT/MPC/ICQ pages.

MPC

Valid HTML 4.01!